Flag for Algeria Weather past 2 weeks in Constantine, Algeria

Now
45 °F

Partly sunny.


Feels Like: 38 °F
Forecast: 36 / 54 °F
Wind: 15 mph from North

Location: Constantine Airport

Current Time: Feb 28, 2015 at 3:05:35 PM

Latest Report: Feb 28, 2015 at 2:30 PM


Visibility: N/A

Pressure: 30.12 "Hg

Humidity: 71%

Dew point: 36 °F

Location of ConstantineLocation

Historic Weather in Constantine — Graph

°F

Constantine temperature yesterday

Maximum temperature yesterday: 48 °F (at 1:30 PM)
Minimum temperature yesterday: 34 °F (at 5:30 AM)
Average temperature yesterday: 42 °F

Past Weeks' High & Low Weather Summary

 TemperatureHumidityPressure
High57 °F (Feb 13, 1:30 PM)100% (Feb 18, 2:00 AM)30.33 "Hg (Feb 18, 2:00 AM)
Low34 °F (Feb 19, 7:00 AM)44% (Feb 23, 3:00 PM)29.47 "Hg (Feb 22, 3:00 AM)
Average44 °F81%29.97 "Hg
* Reported Feb 13 1:00 PM — Feb 28 1:30 PM, Constantine, Weather by CustomWeather, © 2015

Note: Actual official high and low records may vary slightly from our data, if they occured in-between our weather recording intervals... More about our weather records

Advertising

Constantine weather history for previous 24 hours

 ConditionsComfort  
Time TempWeatherWind HumidityBarometerVisibility
1:30 PM
Sat, Feb 28
46 °FPartly sunny.15 mph62%30.15 "HgN/A
1:00 PM46 °FScattered clouds.12 mph62%30.15 "HgN/A
12:30 PM45 °FScattered clouds.16 mph71%30.15 "HgN/A
12:00 PM45 °FScattered clouds.16 mph81%30.15 "HgN/A
11:30 AM45 °FScattered clouds.12 mph81%30.15 "HgN/A
11:00 AM43 °FScattered clouds.14 mph87%30.15 "HgN/A
10:30 AM41 °FLight rain. Broken clouds.14 mph81%30.12 "Hg3 mi
10:00 AM41 °FBroken clouds.9 mph87%30.12 "Hg5 mi
9:30 AM41 °FBroken clouds.13 mph87%30.09 "Hg5 mi
9:00 AM41 °FBroken clouds.16 mph87%30.09 "Hg5 mi
8:30 AM41 °FLight rain. Broken clouds.18 mph87%30.07 "Hg5 mi
8:00 AM39 °FLight rain. Broken clouds.16 mph93%30.07 "Hg5 mi
7:30 AM39 °FLight rain. Broken clouds.17 mph93%30.04 "Hg5 mi
7:00 AM37 °FLight rain. Partly cloudy.24 mph93%30.04 "Hg4 mi
6:30 AM43 °FLight rain. Partly cloudy.24 mph93%29.98 "Hg4 mi
6:00 AM43 °FLight rain. Partly cloudy.18 mph93%29.98 "Hg4 mi
5:30 AM41 °FLight rain. Partly cloudy.14 mph93%29.98 "Hg4 mi
4:30 AM41 °FLight rain. Partly cloudy.8 mph87%29.95 "Hg4 mi
4:00 AM41 °FLight rain. Partly cloudy.8 mph87%29.98 "Hg4 mi
3:30 AM41 °FPartly cloudy.7 mph87%29.98 "Hg4 mi
3:00 AM41 °FPartly cloudy.7 mph87%29.98 "Hg4 mi
2:30 AM41 °FLight rain. Partly cloudy.12 mph87%29.98 "Hg4 mi
2:00 AM41 °FLight rain. Partly cloudy.12 mph87%29.98 "Hg4 mi
1:30 AM41 °FLight rain. Passing clouds.5 mph87%29.98 "Hg4 mi
1:00 AM41 °FPassing clouds.5 mph87%29.98 "Hg5 mi
12:30 AM41 °FPassing clouds.9 mph87%29.98 "Hg5 mi
12:00 AM41 °FPassing clouds.9 mph87%29.98 "HgN/A
11:30 PM
Fri, Feb 27
41 °FPassing clouds.7 mph87%29.98 "HgN/A
11:00 PM41 °FPassing clouds.7 mph87%29.98 "HgN/A
10:30 PM41 °FPassing clouds.6 mph87%29.98 "HgN/A
10:00 PM41 °FPassing clouds.No wind87%29.98 "HgN/A
9:30 PM41 °FPassing clouds.No wind87%29.98 "Hg5 mi
9:00 PM41 °FPassing clouds.7 mph87%29.98 "Hg5 mi
8:30 PM43 °FLight rain. Partly cloudy.18 mph87%29.98 "Hg5 mi
8:00 PM43 °FLight rain. Partly cloudy.9 mph93%29.98 "Hg4 mi
7:30 PM43 °FPartly cloudy.9 mph93%29.95 "Hg4 mi
7:00 PM43 °FPartly cloudy.9 mph93%29.95 "Hg4 mi
6:30 PM43 °FRain. Partly cloudy.14 mph93%29.92 "Hg4 mi
6:00 PM45 °FLight rain. Broken clouds.9 mph93%29.92 "Hg4 mi
5:30 PM46 °FLight rain. Broken clouds.5 mph87%29.89 "Hg4 mi
5:00 PM48 °FLight rain. Broken clouds.5 mph82%29.89 "Hg5 mi
4:30 PM48 °FBroken clouds.3 mph82%29.89 "HgN/A
4:00 PM48 °FBroken clouds.No wind82%29.89 "HgN/A
3:30 PM48 °FBroken clouds.2 mph82%29.89 "HgN/A
3:00 PM48 °FBroken clouds.9 mph82%29.92 "Hg5 mi
Weather by CustomWeather, © 2015

See weather overviewHow to use our weather pages